Portada
METAR-TAF:

METAR-TAF

Aeropuertos :

Millinocket Municipal Airport

Millinocket, Maine, Estados Unidos

latitud: 45-38-52N, longitud: 068-41-31W, altitud: 124 m

Observación

El informe se hizo hace 57 minutos, a las 21:53 UTC
Viento 5 kt con dirección variable
Temperatura 14°C
Humedad 44%
Presión 1020 hPa
Visibilidad: 16.1 km
Cielo despejado

METAR: KMLT 222153Z AUTO VRB05KT 10SM CLR 14/02 A3011 RMK AO2 SLP200 T01390017 TSNO

Hora: 18:50 (22:50 UTC)


TAF: falta

Observaciones y pronósticos meteorológicos de más de 4000 aeropuertos (mensajes METAR y TAF).

Los puntos amarillos y rojos representan las estaciones disponibles.

Ponga el ratón en el punto deseado para ver el nombre de la estación.

Haga clic para ver las observaciones y los pronósticos meteorológicos.

Para cambiar el mapa : haga clic en los botones verdes con una cruz de color negro para hacer un zoom, en el botón verde con un guión para alejar o en las flechas verdes para mapas adyacentes.


METAR-TAF: